Location: ???????
(56.2167°N, 38.0500°E)
Time: 02:20:48
(UTC+00:00)

Geosat FO - Pass Details

Date: 19 May 2025
Orbit: 387 x 492 km, 108.0° (Epoch: 12 June)

Event Time Altitude Azimuth Distance (km) Brightness Sun altitude
Exits shadow 21:22:12 29° 166° (SSE) 757 5.0 -13.8°
Maximum altitude 21:23:32 61° 238° (WSW) 450 4.2 -13.8°
Drops below altitude 10° 21:26:31 10° 320° (NW) 1,433 7.7 -13.8°
Sets 21:28:29 0° 324° (NW) 2,293 8.9 -13.8°
